Torna al catalogo

SL-24 DEB

AttivoPO
NORAD 37586·DEBRIS·🇷🇺 Russia

Lanciato Jun 29, 2004 da Baikonur Cosmodrome

Loading…

Prossimi Passaggi (prossime 24 ore)

TLE

AggiornatoSource: Space-Track

Epoca: Sep 14, 2026, 06:31 UTC

1 37586U 04025L   26257.27185928  .00001442  00000-0  57280-3 0  9990
2 37586  98.1484 269.0120 0285430 122.4399 240.4722 14.10122931819358

Traccia SL-24 DEB in tempo reale con AllMySat

Download on the App Store